Flag for Germany Weather past 2 weeks in Senftenberg, Brandenburg, Germany

Now
52 °F

Scattered clouds.


Feels Like: 52 °F
Forecast: 48 / 69 °F
Wind: 2 mph from Northeast

Location: Cottbus

Current Time: May 24, 2015 at 7:43:36 AM

Latest Report: May 24, 2015 at 7:00 AM


Visibility: 19 mi

Pressure: 30.13 "Hg

Humidity: 73%

Dew point: 43 °F

Location of SenftenbergLocation

Historic Weather in Senftenberg — Graph

°F

Senftenberg temperature yesterday

Maximum temperature yesterday: 69 °F (at 1:00 PM)
Minimum temperature yesterday: 41 °F (at 4:00 AM)
Average temperature yesterday: 58 °F

Past Weeks' High & Low Weather Summary

 TemperatureHumidityPressure
High78 °F (May 12, 3:00 PM)100% (May 11, 1:00 AM)30.40 "Hg (May 11, 1:00 AM)
Low34 °F (May 15, 5:00 AM)23% (May 11, 5:00 PM)29.63 "Hg (May 19, 3:00 AM)
Average56 °F64%30.05 "Hg
* Reported May 9 6:00 AM — May 24 6:00 AM, Senftenberg, Weather by CustomWeather, © 2015

Note: Actual official high and low records may vary slightly from our data, if they occured in-between our weather recording intervals... More about our weather records

Advertising

Senftenberg weather history for previous 24 hours

 ConditionsComfort  
Time TempWeatherWind HumidityBarometerVisibility
6:00 AM
Sun, May 24
49 °FPassing clouds.1 mph87%30.12 "Hg22 mi
5:00 AM50 °FScattered clouds.2 mph85%30.12 "Hg22 mi
4:00 AM52 °FPassing clouds.3 mph83%30.11 "Hg25 mi
3:00 AM53 °FPassing clouds.2 mph85%30.11 "Hg16 mi
2:00 AM54 °FOvercast.2 mph85%30.10 "Hg12 mi
1:00 AM56 °FOvercast.3 mph81%30.10 "Hg10 mi
12:00 AM57 °FOvercast.2 mph80%30.08 "Hg7 mi
11:00 PM
Sat, May 23
59 °FOvercast.2 mph79%30.08 "Hg11 mi
10:00 PM60 °FPassing clouds.3 mph72%30.07 "Hg19 mi
9:00 PM63 °FOvercast.2 mph60%30.04 "Hg22 mi
8:00 PM64 °FOvercast.3 mph57%30.03 "Hg22 mi
7:00 PM66 °FOvercast.2 mph50%30.03 "Hg18 mi
6:00 PM68 °FOvercast.2 mph45%30.03 "Hg22 mi
5:00 PM67 °FOvercast.3 mph47%30.03 "Hg22 mi
4:00 PM68 °FOvercast.2 mph41%30.03 "Hg31 mi
3:00 PM68 °FOvercast.2 mph40%30.04 "Hg37 mi
2:00 PM68 °FPartly sunny.3 mph39%30.05 "Hg34 mi
1:00 PM69 °FScattered clouds.2 mph37%30.07 "Hg34 mi
12:00 PM67 °FScattered clouds.2 mph36%30.09 "Hg43 mi
11:00 AM66 °FOvercast.1 mph41%30.10 "Hg25 mi
10:00 AM64 °FOvercast.1 mph42%30.11 "Hg31 mi
9:00 AM63 °FOvercast.1 mph46%30.11 "Hg25 mi
8:00 AM55 °FOvercast.1 mph69%30.12 "Hg17 mi
7:00 AM50 °FOvercast.1 mph80%30.12 "Hg15 mi
Weather by CustomWeather, © 2015

See weather overviewHow to use our weather pages